Probability
0 0 0 0 0 0 0 0 0 0 0 0 0 0 0 0 0 0 0 0 0 0 0 0 0 0 0 0 0 0 0 0 0 0 0 0 0 0 0 0 0 0 0
0 0 0 0 0 0 0 0 0 0 0 0 0 0 0 0 0 0 0 0 0 0 0 0 0 0 0 0 0 0 0 0 0 0 0 0 0 0 0 0 0 0 0
0 0 0 0 0 0 0 0 0 0 0 0 0 0 0 0 0 0 0 0 0 0 0 0 0 0 0 0 0 0 0 0 0 0 0 0 0 0 0 0 0 0 0
0 0 0 0 0 0 0 0 0 0 0 0 0 0 0 0 0 0 0 0 0 0 0 0 0 0 0 0 0 0 0 0 0 0 0 0 0 0 0 0 0 0 0
0 0 0 0 0 0 0 0 0 0 0 0 0 0 0 0 0 0 0 0 0 0 0 0 0 0 0 0 0 0 0 0 0 0 0 0 0 0 0 0 0 0 0
0 0 0 0 0 0 0 0 0 0 0 0 0 0 0 0 0 0 0 0 0 0 0 0 0 0 0 0 0 0 0 0 0 0 0 0 0 0 0 0 0 0 0
0 0 0 0 0 0 0 0 0 0 0 0 0 0 0 0 0 0 0 0 0 0 0 0 0 0 0 0 0 0 0 0 0 0 0 0 0 0 0 0 0 0 0
0 0 0 0 0 0 0 0 0 0 0 0 0 0 0 0 0 0 0 0 0 0 0 0 0 0 0 0 0 0 0 0 0 0 0 0 0 0 0 0 0 0 0
1 0 0 0 0 0 0 0 0 0 0 0 0 0 0 0 0 0 0 0 0 0 0 0 0 0 0 0 0 0 0 0 0 0 0 0 0 0 0 0 0 0 0
2 1 1 0 0 0 0 0 0 0 0 0 0 0 0 0 0 0 0 0 0 0 0 0 0 0 0 0 0 0 0 0 0 0 0 0 0 0 0 0 0 0 0
3 3 2 1 0 0 0 0 0 0 0 0 0 0 0 0 0 0 0 0 0 0 0 0 0 0 0 0 0 0 0 0 0 0 0 0 0 0 0 0 0 0 0
3 3 2 1 0 0 0 0 0 0 0 0 0 0 0 0 0 0 0 0 0 0 0 0 0 0 0 0 0 0 0 0 0 0 0 0 0 0 0 0 0 0 0
3 3 1 1 0 0 0 0 0 0 0 0 0 0 0 0 0 0 0 0 0 0 0 0 0 0 0 0 0 0 0 0 0 0 0 0 0 0 0 0 0 0 0
2 2 1 0 0 0 0 0 0 0 0 0 0 0 0 0 0 0 0 0 0 0 0 0 0 0 0 0 0 0 0 0 0 0 0 0 0 0 0 0 0 0 0
1 1 0 0 0 0 0 0 0 0 0 0 0 0 0 0 0 0 0 0 0 0 0 0 0 0 0 0 0 0 0 0 0 0 0 0 0 0 0 0 0 0 0
0 0 0 0 0 0 0 0 0 0 0 0 0 0 0 0 0 0 0 0 0 0 0 0 0 0 0 0 0 0 0 0 0 0 0 0 0 0 0 0 0 0 0
0 0 0 0 0 0 0 0 0 0 0 0 0 0 0 0 0 0 0 0 0 0 0 0 0 0 0 0 0 0 0 0 0 0 0 0 0 0 0 0 0 0 0
0 0 0 0 0 0 0 0 0 0 0 0 0 0 0 0 0 0 0 0 0 0 0 0 0 0 0 0 0 0 0 0 0 0 0 0 0 0 0 0 0 0 0
0 0 0 0 0 0 0 0 0 0 0 0 0 0 0 0 0 0 0 0 0 0 0 0 0 0 0 0 0 0 0 0 0 0 0 0 0 0 0 0 0 0 0
0 0 0 0 0 0 0 0 0 0 0 0 0 0 0 0 0 0 0 0 0 0 0 0 0 0 0 0 0 0 0 0 0 0 0 0 0 0 0 0 0 0 0
0 0 0 0 0 0 0 0 0 0 0 0 0 0 0 0 0 0 0 0 0 0 0 0 0 0 0 0 0 0 0 0 0 0 0 0 0 0 0 0 0 0 0
0 0 0 0 0 0 0 0 0 0 0 0 0 0 0 0 0 0 0 0 0 0 0 0 0 0 0 0 0 0 0 0 0 0 0 0 0 0 0 0 0 0 0
0 0 0 0 0 0 0 0 0 0 0 0 0 0 0 0 0 0 0 0 0 0 0 0 0 0 0 0 0 0 0 0 0 0 0 0 0 0 0 0 0 0 0
0 0 0 0 0 0 0 0 0 0 0 0 0 0 0 0 0 0 0 0 0 0 0 0 0 0 0 0 0 0 0 0 0 0 0 0 0 0 0 0 0 0 0
0 0 0 0 0 0 0 0 0 0 0 0 0 0 0 0 0 0 0 0 0 0 0 0 0 0 0 0 0 0 0 0 0 0 0 0 0 0 0 0 0 0 0
0 0 0 0 0 0 0 0 0 0 0 0 0 0 0 0 0 0 0 0 0 0 0 0 0 0 0 0 0 0 0 0 0 0 0 0 0 0 0 0 0 0 0
Wind_Speed
3 2 2 1 1 1 1 1 1 1 2 2 2 2 3 3 3 3 3 7 8 9 10 10 10 8 8 8 7 7 7 7 7 6 6 5 5 4 3 2 2 1 2
3 3 2 2 2 2 2 2 1 1 1 2 2 2 3 3 3 3 3 4 7 8 9 10 10 8 7 5 5 4 4 5 7 8 7 7 6 6 5 5 4 3 2
4 4 3 3 2 2 2 1 1 1 1 1 2 3 2 3 3 4 4 3 3 5 7 8 7 6 4 4 4 3 3 3 2 5 7 7 7 7 7 6 6 5 4
5 4 3 3 3 2 2 2 1 1 1 1 2 2 2 3 4 4 3 3 2 2 3 4 3 3 2 3 4 3 4 5 4 3 3 6 7 7 7 7 7 7 7
6 4 4 3 3 2 2 2 1 1 1 2 2 2 2 2 3 3 3 3 2 1 1 1 2 3 3 3 4 4 5 5 5 5 4 3 5 7 8 8 8 8 8
6 5 3 3 3 2 2 1 1 1 1 1 2 2 2 2 2 2 3 2 2 2 1 2 2 4 6 7 6 6 6 6 6 6 5 5 5 5 7 8 8 8 8
5 5 3 3 3 3 2 2 1 1 1 0 1 2 2 2 2 3 3 3 4 4 4 4 3 3 3 7 8 7 6 6 6 6 6 6 6 6 6 6 7 9 9
4 4 4 3 3 3 3 2 2 1 0 1 1 1 3 3 2 3 3 4 4 4 5 5 5 4 4 3 5 8 8 7 7 7 7 7 7 7 6 5 6 6 7
4 4 4 4 3 3 3 2 2 2 1 0 0 1 1 2 2 2 3 4 4 4 4 4 5 5 4 3 3 7 9 8 8 8 7 7 7 7 6 5 4 3 3
4 4 4 4 4 3 3 2 2 2 2 1 0 1 1 2 1 2 1 2 4 4 4 4 4 5 5 4 5 8 9 9 9 9 9 8 7 8 8 7 5 5 4
4 4 4 4 4 3 3 3 2 2 1 2 1 1 1 1 2 2 3 1 1 2 3 3 3 3 4 4 3 7 10 9 9 10 10 10 10 11 11 10 9 8 6
3 4 4 4 4 3 3 3 2 2 1 1 1 1 1 1 1 2 3 2 1 1 2 2 2 2 3 3 5 9 10 10 10 10 10 11 12 12 12 12 12 11 9
3 4 4 4 3 3 3 3 3 2 2 1 1 1 1 1 1 1 2 2 1 1 1 1 2 2 2 3 3 8 9 10 10 11 12 13 13 12 13 13 13 13 11
4 5 5 5 4 4 4 3 3 2 2 2 1 1 0 0 0 1 1 1 2 1 2 2 1 2 2 2 4 7 5 10 10 11 12 12 12 11 12 12 13 12 11
5 6 6 5 5 4 4 3 2 2 2 2 1 1 1 0 1 1 1 1 2 2 2 2 1 1 1 2 4 3 3 9 9 10 11 10 10 10 11 11 12 12 12
6 7 6 6 5 4 4 3 3 2 3 2 1 2 1 1 0 0 1 1 1 2 2 1 1 1 1 2 5 4 4 9 10 9 9 9 9 9 10 10 11 11 12
7 7 6 6 5 4 4 3 3 3 3 2 2 2 1 1 0 0 1 0 1 1 2 1 1 1 2 2 2 3 3 4 4 9 8 8 8 8 9 9 10 10 11
6 6 6 6 5 4 4 4 3 3 3 3 2 2 2 1 1 1 1 1 1 1 1 2 1 1 1 1 2 3 3 3 3 7 8 8 8 8 8 9 10 10 10
7 6 6 6 5 4 4 3 3 3 3 3 3 2 2 2 1 0 1 1 1 1 0 1 2 1 1 1 2 2 2 3 3 5 7 8 9 8 8 8 9 10 10
7 6 5 5 5 4 4 3 3 3 3 3 3 2 2 2 2 1 0 0 0 0 0 1 2 1 1 1 2 1 1 2 2 4 5 5 7 9 9 9 9 9 9
6 6 6 5 4 4 4 4 4 4 4 3 3 2 2 2 3 2 1 1 1 1 1 1 1 1 1 1 1 1 1 1 1 2 2 3 3 3 5 7 7 8 8
6 6 6 5 4 3 6 7 6 4 4 4 3 2 1 1 1 1 2 2 3 2 2 2 2 2 2 1 1 1 1 1 1 2 2 2 2 2 3 3 5 6 7
6 6 5 5 4 4 7 7 8 5 4 4 4 3 2 2 2 2 2 4 3 1 2 3 3 3 3 3 3 2 1 1 1 1 1 1 2 1 2 4 6 6 6
5 5 5 5 5 5 7 7 7 5 4 4 4 4 3 2 2 3 2 2 1 2 1 2 2 3 3 3 3 3 3 2 1 1 1 0 1 1 2 3 6 6 5
5 5 5 6 6 5 8 8 7 4 3 4 4 4 4 4 6 6 4 3 1 1 1 3 4 4 4 6 5 3 2 1 0 0 1 1 1 2 2 1 3 7 6
5 6 5 5 6 5 8 10 9 4 4 3 3 4 7 7 8 8 5 4 3 2 1 1 2 3 2 2 4 3 3 2 1 1 0 1 1 1 2 1 1 2 3
Wind_Direction
172 175 178 185 195 189 197 216 249 296 308 311 303 290 290 289 283 275 278 283 283 279 278 279 277 271 267 266 266 263 248 239 236 234 235 236 237 242 244 255 281 315 332
179 181 188 196 206 203 204 206 224 261 283 290 296 290 281 283 278 276 270 280 282 279 277 278 280 282 284 289 296 307 294 259 243 237 235 235 235 238 240 241 245 255 268
185 181 185 200 211 198 192 193 219 232 263 270 280 283 277 276 277 277 275 269 278 281 278 276 279 290 305 324 337 350 7 11 298 250 241 238 236 237 239 239 239 243 242
182 174 182 202 197 177 174 183 188 208 248 268 280 287 285 284 284 282 282 280 277 280 293 288 292 307 332 354 358 12 32 41 28 355 272 251 243 241 241 240 238 238 236
180 173 182 192 173 162 169 180 170 181 229 270 277 282 286 286 294 307 305 301 295 287 293 353 38 47 54 52 48 46 47 44 32 19 2 321 273 253 247 243 238 237 233
176 171 172 175 162 156 160 163 170 175 216 266 289 294 290 299 325 335 328 342 1 18 40 54 56 58 63 64 59 54 51 42 26 10 354 335 320 288 265 253 245 238 234
171 169 167 162 158 161 164 161 153 166 234 271 336 323 322 350 25 15 15 25 30 37 53 55 56 51 48 53 50 48 42 32 16 360 346 333 314 299 290 272 260 245 239
174 168 164 161 159 151 143 143 146 154 187 106 127 342 332 341 12 32 31 38 33 38 50 51 53 51 46 38 39 41 35 24 10 356 343 332 323 307 299 295 280 262 247
170 164 160 153 150 149 154 157 157 161 178 175 141 173 226 275 311 352 37 39 37 43 43 47 49 46 45 39 28 32 31 20 8 1 355 352 346 335 323 316 320 310 284
154 153 146 144 145 144 145 146 140 142 147 183 284 262 222 210 259 304 342 38 45 44 38 42 42 42 39 36 34 34 30 20 11 6 5 4 0 1 3 1 349 338 336
142 140 139 139 133 130 132 127 124 123 143 169 186 206 239 237 227 240 271 292 30 43 40 41 44 38 33 30 26 31 29 21 14 9 13 22 24 23 20 18 17 9 358
138 137 130 130 129 132 136 131 124 128 134 147 172 198 211 230 231 237 256 252 241 132 62 44 45 40 37 27 30 35 30 26 23 20 25 35 35 28 22 19 20 16 9
166 158 142 137 130 129 124 120 118 121 127 142 169 201 230 246 262 250 259 262 238 177 151 92 47 37 45 32 25 36 32 34 33 35 37 41 39 32 26 21 18 15 13
158 148 138 133 128 125 123 123 119 130 129 135 151 158 172 278 306 263 260 260 259 216 192 177 93 51 41 35 38 41 30 40 41 43 42 41 38 33 29 25 20 16 13
139 141 138 133 128 127 128 125 123 129 128 128 138 128 124 69 24 336 302 258 252 252 228 171 150 90 54 58 49 41 31 41 44 49 46 40 36 32 30 27 24 20 17
138 141 139 135 130 127 126 122 123 127 127 131 133 125 116 105 54 357 310 283 253 253 250 132 137 121 81 77 64 51 43 48 42 46 44 38 35 34 31 28 24 23 22
141 143 141 136 136 133 128 126 133 139 140 135 128 131 124 109 104 7 352 323 276 254 237 135 101 98 98 86 60 52 49 42 28 37 39 37 37 37 34 32 28 25 28
138 138 137 136 138 138 138 143 152 147 148 150 140 136 141 128 114 60 33 4 321 299 228 173 135 111 91 96 79 62 44 40 27 31 37 37 38 39 40 38 35 34 34
135 134 138 140 143 145 144 147 150 146 150 153 153 157 157 148 145 106 65 25 338 326 323 142 134 109 87 71 73 58 48 30 23 24 32 33 36 40 43 43 40 37 35
141 143 143 144 148 149 147 145 143 142 142 140 142 148 153 164 172 167 141 11 347 16 73 117 121 110 99 72 84 72 40 26 19 9 19 29 33 36 36 37 38 36 36
144 142 139 142 143 146 156 156 154 155 153 146 137 138 157 173 182 177 169 185 153 134 121 124 129 118 123 118 123 99 85 9 28 16 358 14 16 19 17 12 20 32 38
142 143 149 151 155 166 180 177 165 160 161 163 163 156 152 134 151 140 146 153 169 170 173 162 158 171 177 164 135 127 110 80 312 2 14 359 16 18 357 343 10 37 44
154 155 158 161 170 188 193 190 180 160 166 175 176 173 175 166 116 79 65 53 32 32 185 171 177 190 179 178 155 140 143 151 204 327 12 347 4 359 348 347 8 42 51
165 165 168 174 174 197 201 198 185 155 164 180 184 181 180 179 180 165 138 100 44 14 48 133 171 182 178 164 161 159 155 130 105 33 40 352 347 337 339 342 4 34 41
172 171 172 177 181 201 207 201 176 146 170 189 190 189 189 196 218 198 167 167 164 334 41 138 151 158 163 161 150 125 129 112 143 188 33 89 352 329 328 339 359 20 30
177 172 181 187 188 197 209 205 182 159 177 190 196 208 214 210 221 214 177 178 197 215 178 105 89 82 74 115 146 146 152 145 163 226 180 107 44 11 344 332 355 360 8